EN

Hourly Weather Dzierzgowek

Today, 26 October, Monday

Time Temperature Precipitation Wind Pressure Humidity
00:00 +11°C° 0 mm 3 mps 749 mmHg 90%
01:00 +10°C° 0 mm 3 mps 749 mmHg 92%
02:00 +10°C° 0 mm 3 mps 749 mmHg 93%
03:00 +11°C° 0 mm 3 mps 748 mmHg 93%
04:00 +11°C° 0 mm 3 mps 748 mmHg 94%
05:00 +11°C° 0 mm 3 mps 748 mmHg 94%
06:00 +11°C° 0 mm 3 mps 748 mmHg 94%
07:00 +11°C° 0 mm 3 mps 748 mmHg 93%
08:00 +12°C° 0 mm 3 mps 748 mmHg 89%
09:00 +13°C° 0 mm 3 mps 747 mmHg 84%
10:00 +14°C° 0 mm 3 mps 747 mmHg 79%
11:00 +16°C° 0 mm 3 mps 747 mmHg 75%
12:00 +17°C° 0 mm 3 mps 747 mmHg 70%
13:00 +18°C° 0 mm 3 mps 747 mmHg 66%
14:00 +17°C° 0.1 mm 3 mps 747 mmHg 69%
15:00 +17°C° 0.1 mm 2 mps 746 mmHg 72%
16:00 +16°C° 0.1 mm 2 mps 746 mmHg 75%
17:00 +16°C° 0 mm 3 mps 746 mmHg 76%
18:00 +16°C° 0 mm 3 mps 746 mmHg 76%
19:00 +14°C° 0 mm 4 mps 747 mmHg 76%
20:00 +14°C° 0 mm 4 mps 747 mmHg 77%
21:00 +14°C° 0 mm 4 mps 747 mmHg 77%
22:00 +14°C° 0 mm 3 mps 747 mmHg 77%
23:00 +13°C° 0 mm 3 mps 747 mmHg 80%

Tomorrow, 27 October, Tuesday

Time Temperature Precipitation Wind Pressure Humidity
00:00 +13°C° 0 mm 3 mps 747 mmHg 83%
01:00 +12°C° 0 mm 3 mps 747 mmHg 86%
02:00 +13°C° 0 mm 2 mps 747 mmHg 87%
03:00 +13°C° 0 mm 2 mps 747 mmHg 87%
04:00 +13°C° 0 mm 2 mps 747 mmHg 88%
05:00 +13°C° 0 mm 2 mps 747 mmHg 88%
06:00 +13°C° 0 mm 2 mps 748 mmHg 87%
07:00 +13°C° 0 mm 2 mps 748 mmHg 87%
08:00 +13°C° 0 mm 3 mps 748 mmHg 82%
09:00 +14°C° 0 mm 3 mps 748 mmHg 77%
10:00 +15°C° 0 mm 4 mps 748 mmHg 72%
11:00 +17°C° 0 mm 4 mps 748 mmHg 66%
12:00 +17°C° 0 mm 5 mps 748 mmHg 60%
13:00 +20°C° 0 mm 5 mps 748 mmHg 55%
14:00 +19°C° 0 mm 5 mps 748 mmHg 58%
15:00 +18°C° 0 mm 4 mps 748 mmHg 62%
16:00 +17°C° 0 mm 3 mps 748 mmHg 65%
17:00 +17°C° 0 mm 3 mps 748 mmHg 69%
18:00 +16°C° 0 mm 3 mps 748 mmHg 72%
19:00 +14°C° 0 mm 3 mps 749 mmHg 76%
20:00 +14°C° 0 mm 3 mps 749 mmHg 79%
21:00 +13°C° 0 mm 3 mps 749 mmHg 82%
22:00 +13°C° 0 mm 3 mps 750 mmHg 85%
23:00 +12°C° 0 mm 3 mps 750 mmHg 87%

Day after tomorrow, 28 October, Wednesday

Time Temperature Precipitation Wind Pressure Humidity
00:00 +11°C° 0 mm 3 mps 750 mmHg 90%
01:00 +11°C° 0 mm 3 mps 751 mmHg 92%
02:00 +10°C° 0 mm 2 mps 751 mmHg 93%
03:00 +10°C° 0 mm 2 mps 751 mmHg 94%
04:00 +9°C° 0 mm 2 mps 751 mmHg 94%
05:00 +10°C° 0 mm 1 mps 751 mmHg 94%
06:00 +10°C° 0 mm 1 mps 752 mmHg 94%
07:00 +10°C° 0 mm 1 mps 752 mmHg 94%
08:00 +11°C° 0 mm 1 mps 752 mmHg 87%
09:00 +12°C° 0 mm 2 mps 752 mmHg 81%
10:00 +13°C° 0 mm 2 mps 752 mmHg 74%
11:00 +14°C° 0 mm 2 mps 752 mmHg 71%
12:00 +14°C° 0 mm 3 mps 752 mmHg 67%
13:00 +16°C° 0 mm 3 mps 752 mmHg 64%
14:00 +14°C° 0 mm 3 mps 752 mmHg 67%
15:00 +14°C° 0 mm 3 mps 751 mmHg 71%
16:00 +14°C° 0 mm 2 mps 751 mmHg 74%
17:00 +13°C° 0 mm 3 mps 751 mmHg 78%
18:00 +12°C° 0 mm 3 mps 751 mmHg 82%
19:00 +12°C° 0 mm 3 mps 752 mmHg 86%
20:00 +11°C° 0 mm 3 mps 752 mmHg 87%
21:00 +11°C° 0 mm 3 mps 752 mmHg 87%
22:00 +11°C° 0 mm 3 mps 752 mmHg 88%
23:00 +11°C° 0 mm 3 mps 752 mmHg 86%

29 October, Thursday

Time Temperature Precipitation Wind Pressure Humidity
00:00 +10°C° 0 mm 3 mps 752 mmHg 84%
01:00 +10°C° 0 mm 3 mps 752 mmHg 81%
02:00 +10°C° 0 mm 3 mps 752 mmHg 81%
03:00 +9°C° 0 mm 3 mps 752 mmHg 81%
04:00 +9°C° 0 mm 3 mps 752 mmHg 80%
05:00 +9°C° 0 mm 3 mps 752 mmHg 79%
06:00 +9°C° 0 mm 3 mps 752 mmHg 78%
07:00 +9°C° 0 mm 3 mps 752 mmHg 76%
08:00 +11°C° 0 mm 4 mps 752 mmHg 71%
09:00 +12°C° 0 mm 5 mps 753 mmHg 66%
10:00 +14°C° 0 mm 6 mps 753 mmHg 60%
11:00 +14°C° 0 mm 6 mps 753 mmHg 60%
12:00 +15°C° 0 mm 6 mps 753 mmHg 60%
13:00 +15°C° 0 mm 6 mps 753 mmHg 59%
14:00 +14°C° 0 mm 5 mps 753 mmHg 62%
15:00 +14°C° 0 mm 4 mps 753 mmHg 66%
16:00 +13°C° 0 mm 3 mps 753 mmHg 69%
17:00 +12°C° 0.1 mm 3 mps 754 mmHg 71%
18:00 +12°C° 0.1 mm 3 mps 754 mmHg 74%
19:00 +11°C° 0.1 mm 3 mps 755 mmHg 76%
20:00 +10°C° 0 mm 3 mps 755 mmHg 78%
21:00 +10°C° 0 mm 3 mps 755 mmHg 79%
22:00 +9°C° 0 mm 3 mps 755 mmHg 81%
23:00 +9°C° 0 mm 3 mps 756 mmHg 82%

30 October, Friday

Time Temperature Precipitation Wind Pressure Humidity
00:00 +9°C° 0 mm 3 mps 756 mmHg 83%
01:00 +9°C° 0 mm 3 mps 756 mmHg 84%
02:00 +9°C° 0 mm 3 mps 756 mmHg 84%
03:00 +8°C° 0 mm 4 mps 756 mmHg 84%
04:00 +8°C° 0 mm 4 mps 755 mmHg 83%
05:00 +8°C° 0 mm 4 mps 755 mmHg 83%
06:00 +8°C° 0 mm 4 mps 756 mmHg 83%
07:00 +8°C° 0 mm 5 mps 756 mmHg 83%
08:00 +9°C° 0 mm 5 mps 756 mmHg 80%
09:00 +10°C° 0 mm 5 mps 756 mmHg 77%
10:00 +10°C° 0 mm 5 mps 756 mmHg 74%
11:00 +12°C° 0 mm 5 mps 756 mmHg 73%
12:00 +13°C° 0 mm 5 mps 756 mmHg 72%
13:00 +14°C° 0 mm 5 mps 756 mmHg 71%
14:00 +13°C° 0 mm 5 mps 756 mmHg 73%
15:00 +13°C° 0 mm 4 mps 756 mmHg 75%
16:00 +13°C° 0 mm 4 mps 756 mmHg 77%
17:00 +12°C° 0 mm 4 mps 756 mmHg 78%
18:00 +12°C° 0 mm 4 mps 756 mmHg 79%
19:00 +12°C° 0 mm 4 mps 756 mmHg 80%
20:00 +12°C° 0 mm 4 mps 756 mmHg 80%
21:00 +12°C° 0 mm 4 mps 756 mmHg 81%
22:00 +11°C° 0 mm 4 mps 756 mmHg 82%
23:00 +11°C° 0 mm 4 mps 756 mmHg 83%

31 October, Saturday

Time Temperature Precipitation Wind Pressure Humidity
00:00 +11°C° 0 mm 3 mps 756 mmHg 83%
01:00 +10°C° 0 mm 3 mps 756 mmHg 84%
02:00 +10°C° 0 mm 3 mps 756 mmHg 84%
03:00 +10°C° 0 mm 3 mps 756 mmHg 83%
04:00 +9°C° 0 mm 3 mps 756 mmHg 83%
05:00 +9°C° 0 mm 3 mps 756 mmHg 83%
06:00 +9°C° 0 mm 3 mps 756 mmHg 84%
07:00 +9°C° 0 mm 3 mps 756 mmHg 84%
Show more